User: anonymous   Login
Location: Unspecified
(0.0000°N, 0.0000°E)
Time: 04:04:47
(UTC+02:00)
Language:

Timation 2 Rocket - Orbit

View from above orbital plane
View from above orbital plane
View from above satellite
View from above satellite

Ground track
Ground track

The orbit data is extracted from the following two-line orbital elements,

1 04159U 69082AB  15209.87170160 -.00000032  00000-0  19619-4 0  9997
2 04159 069.9631 135.4616 0117283 228.5122 130.5858 13.72310321293507
Epoch (UTC): 28 July 2015 20:55:15
Eccentricity: 0.0117283
inclination: 69.9631°
perigee height: 905 km
apogee height: 1078 km
right ascension of ascending node: 135.4616°
argument of perigee: 228.5122°
revolutions per day: 13.72310321
mean anomaly at epoch: 130.5858°
orbit number at epoch: 29350

The dashed part of the orbit path shows where the satellite is in the earth's shadow,  

DLR